• In Moldova, Republic
  • List of Countries
  • For 7 days
  • Water Temperature
  • Satellite Maps
  • Weather Map
  • Weather Widgets
  • user-avatar
    Login

    Hourly Weather Berat

    Today, 17 October, Tuesday

    Time Temperature Precipitation Wind Pressure Humidity
    00:00 +21°C° 0 mm 1 mps 752 mmHg 48%
    01:00 +20°C° 0 mm 1 mps 752 mmHg 48%
    02:00 +20°C° 0 mm 1 mps 752 mmHg 48%
    03:00 +20°C° 0 mm 1 mps 752 mmHg 49%
    04:00 +20°C° 0 mm 1 mps 752 mmHg 49%
    05:00 +20°C° 0 mm 1 mps 752 mmHg 50%
    06:00 +20°C° 0 mm 1 mps 752 mmHg 50%
    07:00 +21°C° 0 mm 1 mps 752 mmHg 50%
    08:00 +23°C° 0 mm 1 mps 752 mmHg 45%
    09:00 +26°C° 0 mm 1 mps 752 mmHg 39%
    10:00 +28°C° 0 mm 1 mps 752 mmHg 34%
    11:00 +29°C° 0 mm 1 mps 752 mmHg 32%
    12:00 +29°C° 0 mm 1 mps 751 mmHg 31%
    13:00 +30°C° 0 mm 2 mps 751 mmHg 30%
    14:00 +29°C° 0 mm 2 mps 751 mmHg 34%
    15:00 +28°C° 0 mm 2 mps 750 mmHg 37%
    16:00 +27°C° 0 mm 2 mps 750 mmHg 41%
    17:00 +26°C° 0 mm 1 mps 750 mmHg 45%
    18:00 +24°C° 0 mm 1 mps 750 mmHg 48%
    19:00 +22°C° 0 mm 1 mps 750 mmHg 52%
    20:00 +22°C° 0 mm 1 mps 750 mmHg 52%
    21:00 +21°C° 0 mm 1 mps 750 mmHg 52%
    22:00 +21°C° 0 mm 1 mps 750 mmHg 52%
    23:00 +21°C° 0 mm 1 mps 750 mmHg 52%

    Tomorrow, 18 October, Wednesday

    Time Temperature Precipitation Wind Pressure Humidity
    00:00 +20°C° 0 mm 1 mps 750 mmHg 52%
    01:00 +20°C° 0 mm 1 mps 749 mmHg 53%
    02:00 +20°C° 0 mm 1 mps 749 mmHg 53%
    03:00 +19°C° 0 mm 1 mps 749 mmHg 53%
    04:00 +19°C° 0 mm 1 mps 748 mmHg 53%
    05:00 +20°C° 0 mm 1 mps 748 mmHg 53%
    06:00 +20°C° 0 mm 1 mps 749 mmHg 53%
    07:00 +20°C° 0 mm 1 mps 749 mmHg 52%
    08:00 +23°C° 0 mm 1 mps 749 mmHg 45%
    09:00 +25°C° 0 mm 1 mps 748 mmHg 37%
    10:00 +27°C° 0 mm 1 mps 748 mmHg 30%
    11:00 +28°C° 0 mm 1 mps 748 mmHg 29%
    12:00 +29°C° 0 mm 1 mps 748 mmHg 28%
    13:00 +29°C° 0 mm 2 mps 747 mmHg 26%
    14:00 +28°C° 0 mm 2 mps 747 mmHg 31%
    15:00 +27°C° 0 mm 2 mps 747 mmHg 35%
    16:00 +26°C° 0 mm 2 mps 746 mmHg 40%
    17:00 +25°C° 0 mm 1 mps 747 mmHg 46%
    18:00 +23°C° 0 mm 1 mps 747 mmHg 51%
    19:00 +19°C° 0 mm 0 mps 747 mmHg 56%
    20:00 +19°C° 0 mm 0 mps 747 mmHg 56%
    21:00 +20°C° 0 mm 1 mps 747 mmHg 55%
    22:00 +20°C° 0 mm 1 mps 747 mmHg 54%
    23:00 +20°C° 0 mm 1 mps 747 mmHg 53%

    Day after tomorrow, 19 October, Thursday

    Time Temperature Precipitation Wind Pressure Humidity
    00:00 +20°C° 0 mm 1 mps 747 mmHg 52%
    01:00 +19°C° 0 mm 1 mps 747 mmHg 51%
    02:00 +19°C° 0 mm 1 mps 746 mmHg 51%
    03:00 +19°C° 0 mm 1 mps 746 mmHg 51%
    04:00 +19°C° 0 mm 1 mps 746 mmHg 51%
    05:00 +19°C° 0 mm 1 mps 746 mmHg 51%
    06:00 +19°C° 0 mm 1 mps 746 mmHg 51%
    07:00 +20°C° 0 mm 1 mps 746 mmHg 52%
    08:00 +22°C° 0 mm 1 mps 746 mmHg 47%
    09:00 +24°C° 0 mm 1 mps 747 mmHg 43%
    10:00 +26°C° 0 mm 1 mps 747 mmHg 39%
    11:00 +26°C° 0 mm 2 mps 746 mmHg 37%
    12:00 +27°C° 0 mm 2 mps 746 mmHg 36%
    13:00 +27°C° 0 mm 3 mps 746 mmHg 35%
    14:00 +27°C° 0 mm 2 mps 746 mmHg 39%
    15:00 +26°C° 0 mm 2 mps 746 mmHg 43%
    16:00 +25°C° 0 mm 2 mps 746 mmHg 47%
    17:00 +23°C° 0 mm 1 mps 746 mmHg 54%
    18:00 +21°C° 0 mm 1 mps 746 mmHg 61%
    19:00 +18°C° 0 mm 0 mps 746 mmHg 68%
    20:00 +19°C° 0 mm 1 mps 747 mmHg 69%
    21:00 +19°C° 0 mm 1 mps 747 mmHg 70%
    22:00 +19°C° 0 mm 1 mps 747 mmHg 71%
    23:00 +18°C° 0 mm 1 mps 747 mmHg 71%

    20 October, Friday

    Time Temperature Precipitation Wind Pressure Humidity
    00:00 +18°C° 0 mm 1 mps 747 mmHg 72%
    01:00 +18°C° 0 mm 1 mps 747 mmHg 72%
    02:00 +16°C° 0 mm 1 mps 747 mmHg 72%
    03:00 +16°C° 0 mm 1 mps 747 mmHg 73%
    04:00 +16°C° 0 mm 1 mps 747 mmHg 73%
    05:00 +16°C° 0 mm 1 mps 747 mmHg 71%
    06:00 +18°C° 0 mm 1 mps 747 mmHg 68%
    07:00 +18°C° 0 mm 1 mps 747 mmHg 66%
    08:00 +20°C° 0 mm 1 mps 747 mmHg 58%
    09:00 +22°C° 0 mm 1 mps 748 mmHg 50%
    10:00 +25°C° 0 mm 1 mps 748 mmHg 42%
    11:00 +25°C° 0 mm 1 mps 747 mmHg 39%
    12:00 +26°C° 0 mm 2 mps 747 mmHg 37%
    13:00 +26°C° 0 mm 2 mps 747 mmHg 35%
    14:00 +25°C° 0 mm 2 mps 747 mmHg 40%
    15:00 +24°C° 0 mm 2 mps 747 mmHg 46%
    16:00 +24°C° 0 mm 2 mps 747 mmHg 51%
    17:00 +21°C° 0 mm 2 mps 747 mmHg 59%
    18:00 +20°C° 0 mm 1 mps 747 mmHg 67%
    19:00 +19°C° 0 mm 1 mps 748 mmHg 75%
    20:00 +18°C° 0 mm 1 mps 748 mmHg 76%
    21:00 +18°C° 0 mm 1 mps 748 mmHg 76%
    22:00 +18°C° 0 mm 1 mps 748 mmHg 77%
    23:00 +16°C° 0 mm 1 mps 748 mmHg 77%

    21 October, Saturday

    Time Temperature Precipitation Wind Pressure Humidity
    00:00 +16°C° 0 mm 1 mps 748 mmHg 77%
    01:00 +16°C° 0 mm 1 mps 748 mmHg 77%
    02:00 +16°C° 0 mm 1 mps 748 mmHg 76%
    03:00 +15°C° 0 mm 1 mps 748 mmHg 76%
    04:00 +15°C° 0 mm 1 mps 748 mmHg 76%
    05:00 +16°C° 0 mm 1 mps 748 mmHg 72%
    06:00 +16°C° 0 mm 1 mps 748 mmHg 69%
    07:00 +18°C° 0 mm 1 mps 748 mmHg 66%
    08:00 +20°C° 0 mm 1 mps 748 mmHg 57%
    09:00 +22°C° 0 mm 1 mps 748 mmHg 48%
    10:00 +24°C° 0 mm 1 mps 748 mmHg 39%
    11:00 +25°C° 0 mm 2 mps 748 mmHg 37%
    12:00 +25°C° 0 mm 3 mps 748 mmHg 35%
    13:00 +26°C° 0 mm 3 mps 747 mmHg 34%
    14:00 +25°C° 0 mm 3 mps 747 mmHg 38%
    15:00 +24°C° 0 mm 3 mps 747 mmHg 43%
    16:00 +22°C° 0 mm 3 mps 747 mmHg 47%
    17:00 +20°C° 0 mm 2 mps 747 mmHg 54%
    18:00 +19°C° 0 mm 2 mps 747 mmHg 61%
    19:00 +18°C° 0 mm 1 mps 747 mmHg 67%
    20:00 +18°C° 0 mm 1 mps 747 mmHg 67%
    21:00 +16°C° 0 mm 1 mps 747 mmHg 67%
    22:00 +16°C° 0 mm 1 mps 747 mmHg 67%
    23:00 +16°C° 0 mm 1 mps 747 mmHg 67%

    22 October, Sunday

    Time Temperature Precipitation Wind Pressure Humidity
    00:00 +16°C° 0 mm 1 mps 747 mmHg 66%
    01:00 +15°C° 0 mm 1 mps 747 mmHg 65%
    02:00 +15°C° 0 mm 1 mps 747 mmHg 65%
    03:00 +15°C° 0 mm 1 mps 746 mmHg 64%
    04:00 +15°C° 0 mm 1 mps 746 mmHg 63%
    05:00 +15°C° 0 mm 1 mps 746 mmHg 61%
    06:00 +16°C° 0 mm 1 mps 746 mmHg 58%
    07:00 +16°C° 0 mm 1 mps 746 mmHg 56%
    08:00 +20°C° 0 mm 1 mps 746 mmHg 48%
    09:00 +22°C° 0 mm 1 mps 746 mmHg 39%
    10:00 +24°C° 0 mm 1 mps 746 mmHg 31%
    11:00 +25°C° 0 mm 2 mps 746 mmHg 29%
    12:00 +25°C° 0 mm 2 mps 745 mmHg 28%
    13:00 +26°C° 0 mm 3 mps 745 mmHg 27%
    14:00 +25°C° 0 mm 2 mps 745 mmHg 31%
    15:00 +24°C° 0 mm 2 mps 744 mmHg 36%
    16:00 +23°C° 0 mm 2 mps 744 mmHg 40%
    17:00 +21°C° 0 mm 1 mps 744 mmHg 46%
    18:00 +19°C° 0 mm 1 mps 744 mmHg 52%
    19:00 +18°C° 0 mm 1 mps 744 mmHg 58%
    20:00 +16°C° 0 mm 1 mps 744 mmHg 58%
    21:00 +16°C° 0 mm 1 mps 744 mmHg 58%
    22:00 +16°C° 0 mm 1 mps 744 mmHg 59%
    23:00 +15°C° 0 mm 1 mps 744 mmHg 57%
    Show more